Location: downtown San Diego
(32.7310°N, 117.1990°W)
Time: 22:22:05
(UTC-07:00)

Cosmos 292 Rocket - Pass Details

Date: 19 May 2017
Orbit: 673 x 696 km, 74.0° (Epoch: 25 September)

Event Time Altitude Azimuth Distance (km) Brightness Sun altitude
Rises 21:28:13 0° 205° (SSW) 3,056 7.0 -19.3°
Reaches altitude 10° 21:30:34 10° 209° (SSW) 2,141 6.2 -19.7°
Maximum altitude 21:35:19 57° 288° (WNW) 813 4.4 -20.4°
Drops below altitude 10° 21:40:04 10° 8° (N) 2,143 6.8 -21.1°
Sets 21:42:25 0° 12° (NNE) 3,059 7.6 -21.5°
